Dauntless Aviation
Airports Europe France
LFBD
BOD

Merignac

Bordeaux, FRANCE

Airport Info
Suggest Updated Information for this Airport

Location

Latitude / Longitude: 44°49'41"N / 0°42'56"W
  44°49.698'N / 0°42.936'W
  44.8283 / -0.7156

Nearby radio navigation aids

BD BORDEAUX NDB. 228.2° 9.2nm from BD to field.
BDX BORDEAUX VORTAC on field.
BE BORDEAUX NDB. 262.1° 13.8nm from BE to field.
NB BORDEAUX NDB. 202.9° 20.4nm from NB to field.

Runway Information

Runway 05 /23

Dimensions: 10171 x 148 ft.
Surface: ASP
 
Runway 05
Runway 23
Latitude: 44.819103 44.838694
Longitude: -0.728983 -0.701
Elevation: 160 ft. 160 ft.
Runway true heading: 42.9 222.9
 

Runway 11 /29

Dimensions: 7923 x 148 ft.
Surface: ASP
 
Runway 11
Runway 29
Latitude: 44.831567 44.825411
Longitude: -0.729242 -0.699897
Elevation: 153 ft. 153 ft.
Runway true heading: 103.9 283.9
 

Instrument Procedures

IAPs (Instrument Approach Procedures)

  Aerodrome Information (Textual)
  Visual Approach Chart
  Visual Approach Chart-HEL
Satellite photo at:
Airport distance calculator
From:
Weather Reports

METAR

LFBD

LFBD 250000Z AUTO 04005KT 9999 FEW012 SCT050 BKN064 09/07 Q1016 TEMPO 3000 RA BKN006 BKN014
LFBC
25.4nm S
LFBC 250000Z AUTO 00000KT 9999 BKN019 OVC024 09/06 Q1016

TAF

LFBD
TAF LFBD 242300Z 2500/2606 05005KT 9999 SCT006 BKN025 TEMPO 2500/2502 3000 RA BKN006 BKN014 TEMPO 2502/2506 BKN004 BECMG 2506/2508 CAVOK BECMG 2508/2510 12010KT TEMPO 2512/2518 12015G25KT 4000 SHRA SCT020TCU BKN025 PROB30 TEMPO 2514/2517 12020G30KT TX15/2515Z TN08/2503Z
LFBC
25.4nm S
TAF LFBC 241400Z 2415/2515 06005KT 9999 FEW040 BECMG 2420/2422 4000 RA BECMG 2500/2502 9999 NSW SCT005 BKN010 TEMPO 2502/2507 BKN005 BECMG 2507/2509 SCT040 BECMG 2509/2511 08015G25KT TEMPO 2512/2515 4000 RA
Safelog

 

Dauntless Aviation

© 2007-2017 Dauntless Aviation, all rights reserved
Information provided via PilotNav comes from a variety of official and unofficial data sources. As errors are possible, do not use PilotNav for primary flight planning purposes. Verify any information that you receive via PilotNav with current and canonical charts and other official documents. The material in this database is subject to database copyrights held by Dauntless Aviation and may not be copied without the express permission of Dauntless Aviation - licenses for use of part of all of this data are available for purchase; enquire via the Dauntless Aviation helpdesk. A number of mechanisms and markers exist in the database to protect against and identify infringement / copyright. Automated queries against this website are stictly prohibited, and all activity is logged and analyzed.